Weather in Quepem

India     15°12′49″N   74°03′55″E
temp.,
°C
wind,
m/s
gust,
m/s
humid.,
%
clouds,
%
prec.,
mm/h
press.,
hPa
HPBL,
m
21 april, wed
wed2123:30+28wsw126957 0.0 1011198
02:30+25nw127881 0.0 1009135
05:30+24ne118487 0.0 101075
08:30+30n235994 0.0 1013941
11:30+34wnw453999 0.0 10111347
14:30+33w65485 0.0 1008895
17:30+30wnw67555 0.0 1008913
20:30+27nw377098 0.0 1010450
22 april, thu
thu2223:30+26n147675 0.0 1011187
02:30+25nne13807 0.0 1009114
05:30+24ene1185100 0.0 101060
08:30+28nnw2461100 0.0 1012581
11:30+34w4442100 0.0 10111279
14:30+33w6550100 0.0 10081024
17:30+31wnw555715 0.0 10081004
20:30+27nw2472100 0.0 1010187
23 april, fri
fri2323:30+26wnw0276100 0.0 1011118
02:30+25nw1278100 0.0 1009122
05:30+24ene128198 0.0 101098
08:30+29nnw1261100 0.0 1012620
11:30+33w5447100 0.0 10111360
14:30+33w5449100 0.0 10081281
17:30+30wnw5559100 0.0 1008959
20:30+27nw24704 0.0 1010212
24 april, sat
sat2423:30+26nw127517 0.0 1011122
02:30+25nne127848 0.0 1009101
05:30+24ene11815 0.0 101050
08:30+30n13562 0.0 1012665
11:30+34wnw44370 0.0 10101265
14:30+34w65444 0.0 1007809
17:30+30wnw565490 0.0 10081027
20:30+27nw366925 0.0 1010326
25 april, sun
sun2523:30+26nne137643 0.0 1011118
02:30+24e11801 0.0 100966
05:30+23ene11835 0.0 101041
08:30+29nnw24605 0.0 1012617
11:30+34w55456 0.0 10111224
14:30+33w65505 0.0 10081034
17:30+30wnw55617 0.0 1008999
20:30+27nw24765 0.0 1009164